Wendover, UT

12:44 PM MST on February 22, 2018 (GMT -0700)
Wendover

Weather History for KENV - December, 2012

Change the Weather History Date:

Saturday, December 29, 2012

  Actual Average Record
Temperature  
Mean Temperature 12 °F -  
Max Temperature 21 °F 32 °F 56 °F (1945)
Min Temperature 3 °F 17 °F -5 °F (1990)
Degree Days  
Heating Degree Days 53    
Moisture  
Dew Point 11 °F    
Average Humidity 87    
Maximum Humidity 100    
Minimum Humidity 72    
Precipitation  
Precipitation 0.00 in - - ()
Sea Level Pressure  
Sea Level Pressure 30.11 in    
Wind  
Wind Speed 1 mph (SSW)    
Max Wind Speed 5 mph    
Max Gust Speed -    
Visibility 10 miles    
Events      
Averages and records for this station are not official NWS values.
T = Trace of Precipitation, MM = Missing Value Source: NWS Daily Summary

Daily Weather History Graph

Daily Weather History Graph

Search for Another Location

Airport or City:

Trip Planner

Search our weather history database for the weather conditions in past years. The results will help you decide how hot, cold, wet, or windy it might be!

Date:

Astronomy

Dec. 29, 2012 Rise Set
Actual Time 7:59 AM MST 5:17 PM MST
Civil Twilight 7:28 AM MST 5:48 PM MST
Nautical Twilight 6:54 AM MST 6:22 PM MST
Astronomical Twilight 6:21 AM MST 6:55 PM MST
Moon 6:54 PM MST (12/29) 8:35 AM MST (12/29)
Length of Visible Light 10h 19m
Length of Day
9h 17m
Full, 98% of the Moon is Illuminated
Dec 29
Full
Jan 4
Last Quarter
Jan 11
New
Jan 18
First Quarter
Jan 26
Full

Hourly Weather History & Observations

Time (MST) Temp. Windchill Dew Point Humidity Pressure Visibility Wind Dir Wind Speed Gust Speed Precip Events Conditions
12:15 AM 6.8 °F - 6.8 °F 100% 30.21 in 10.0 mi Calm Calm - N/A   Clear
12:35 AM 3.2 °F - -4.0 °F 72% 30.21 in 10.0 mi Calm Calm - N/A   Clear
12:55 AM 6.8 °F - 1.4 °F 79% 30.21 in 10.0 mi Calm Calm - N/A   Clear
1:15 AM 8.6 °F - 8.6 °F 100% 30.20 in 10.0 mi Calm Calm - N/A   Clear
1:35 AM 10.4 °F - 10.4 °F 100% 30.20 in 10.0 mi Calm Calm - N/A   Clear
1:55 AM 6.8 °F -0.1 °F 1.4 °F 79% 30.19 in 10.0 mi West 3.5 mph - N/A   Clear
2:15 AM 10.4 °F 4.0 °F 10.4 °F 100% 30.19 in 10.0 mi NW 3.5 mph - N/A   Clear
2:35 AM 10.4 °F - 10.4 °F 100% 30.20 in 10.0 mi Calm Calm - N/A   Clear
3:35 AM 6.8 °F -0.1 °F 6.8 °F 100% 30.20 in 10.0 mi SSE 3.5 mph - N/A   Clear
3:55 AM 6.8 °F -0.1 °F 6.8 °F 100% 30.20 in 10.0 mi NE 3.5 mph - N/A   Partly Cloudy
4:35 AM 10.4 °F - 8.6 °F 92% 30.19 in 10.0 mi Calm Calm - N/A   Overcast
5:15 AM 12.2 °F - 10.4 °F 92% 30.18 in 10.0 mi Calm Calm - N/A   Scattered Clouds
5:35 AM 12.2 °F - 10.4 °F 92% 30.18 in 10.0 mi Calm Calm - N/A   Mostly Cloudy
5:55 AM 12.2 °F - 8.6 °F 85% 30.18 in 10.0 mi Calm Calm - N/A   Mostly Cloudy
6:15 AM 10.4 °F - 8.6 °F 92% 30.18 in 10.0 mi Calm Calm - N/A   Mostly Cloudy
6:35 AM 10.4 °F - 8.6 °F 92% 30.19 in 10.0 mi Calm Calm - N/A   Overcast
7:15 AM 12.2 °F - 8.6 °F 85% 30.18 in 10.0 mi Calm Calm - N/A   Mostly Cloudy
7:35 AM 12.2 °F - 10.4 °F 92% 30.18 in 10.0 mi Calm Calm - N/A   Scattered Clouds
7:55 AM 12.2 °F - 8.6 °F 85% 30.17 in 10.0 mi Calm Calm - N/A   Partly Cloudy
8:15 AM 10.4 °F - 6.8 °F 85% 30.17 in 10.0 mi Calm Calm - N/A   Clear
8:35 AM 10.4 °F - 8.6 °F 92% 30.16 in 10.0 mi Calm Calm - N/A   Clear
8:55 AM 10.4 °F - 6.8 °F 85% 30.17 in 10.0 mi Calm Calm - N/A   Clear
9:15 AM 10.4 °F - 6.8 °F 85% 30.17 in 10.0 mi Calm Calm - N/A   Clear
9:35 AM 10.4 °F - 6.8 °F 85% 30.17 in 10.0 mi Calm Calm - N/A   Clear
9:55 AM 14.0 °F - 10.4 °F 86% 30.18 in 10.0 mi Calm Calm - N/A   Clear
10:35 AM 14.0 °F - 10.4 °F 86% 30.17 in 10.0 mi Calm Calm - N/A   Clear
10:55 AM 15.8 °F - 10.4 °F 79% 30.17 in 10.0 mi Calm Calm - N/A   Clear
11:15 AM 17.6 °F - 10.4 °F 73% 30.17 in 10.0 mi Calm Calm - N/A   Clear
11:35 AM 17.6 °F - 12.2 °F 79% 30.15 in 10.0 mi Calm Calm - N/A   Clear
11:55 AM 17.6 °F - 12.2 °F 79% 30.14 in 10.0 mi Calm Calm - N/A   Clear
12:15 PM 19.4 °F - 12.2 °F 74% 30.13 in 10.0 mi Calm Calm - N/A   Clear
12:35 PM 19.4 °F - 15.8 °F 86% 30.12 in 10.0 mi Calm Calm - N/A   Clear
12:55 PM 19.4 °F - 14.0 °F 80% 30.10 in 10.0 mi Calm Calm - N/A   Clear
1:15 PM 21.2 °F 16.4 °F 15.8 °F 80% 30.09 in 10.0 mi South 3.5 mph - N/A   Clear
1:35 PM 21.2 °F 16.4 °F 15.8 °F 80% 30.08 in 10.0 mi South 3.5 mph - N/A   Clear
1:55 PM 21.2 °F 16.4 °F 15.8 °F 80% 30.07 in 10.0 mi SSW 3.5 mph - N/A   Clear
2:15 PM 19.4 °F 12.8 °F 15.8 °F 86% 30.06 in 10.0 mi South 4.6 mph - N/A   Clear
2:35 PM 19.4 °F 14.3 °F 15.8 °F 86% 30.06 in 10.0 mi South 3.5 mph - N/A   Clear
2:55 PM 19.4 °F 14.3 °F 14.0 °F 80% 30.05 in 10.0 mi SSW 3.5 mph - N/A   Clear
3:15 PM 17.6 °F - 14.0 °F 86% 30.05 in 10.0 mi Calm Calm - N/A   Clear
3:35 PM 17.6 °F - 12.2 °F 79% 30.04 in 10.0 mi Calm Calm - N/A   Partly Cloudy
3:55 PM 17.6 °F - 14.0 °F 86% 30.04 in 10.0 mi Calm Calm - N/A   Partly Cloudy
4:15 PM 19.4 °F - 15.8 °F 86% 30.04 in 10.0 mi Calm Calm - N/A   Clear
4:35 PM 19.4 °F - 15.8 °F 86% 30.04 in 10.0 mi Calm Calm - N/A   Clear
4:55 PM 17.6 °F 12.3 °F 14.0 °F 86% 30.03 in 10.0 mi SW 3.5 mph - N/A   Partly Cloudy
5:15 PM 15.8 °F - 12.2 °F 86% 30.03 in 10.0 mi Calm Calm - N/A   Clear
5:35 PM 15.8 °F - 12.2 °F 86% 30.02 in 10.0 mi Calm Calm - N/A   Partly Cloudy
6:15 PM 15.8 °F - 12.2 °F 86% 30.02 in 10.0 mi Calm Calm - N/A   Scattered Clouds
7:15 PM 12.2 °F - 10.4 °F 92% 30.02 in 10.0 mi Calm Calm - N/A   Partly Cloudy
7:55 PM 14.0 °F - 12.2 °F 93% 30.03 in 10.0 mi Calm Calm - N/A   Overcast
8:35 PM 15.8 °F - 14.0 °F 93% 30.02 in 10.0 mi Calm Calm - N/A   Partly Cloudy
8:55 PM 15.8 °F - 12.2 °F 86% 30.02 in 10.0 mi Calm Calm - N/A   Mostly Cloudy
9:15 PM 15.8 °F - 12.2 °F 86% 30.02 in 10.0 mi Calm Calm - N/A   Scattered Clouds
9:35 PM 15.8 °F - 12.2 °F 86% 30.02 in 10.0 mi Calm Calm - N/A   Partly Cloudy
10:15 PM 14.0 °F - 10.4 °F 86% 30.02 in 10.0 mi Calm Calm - N/A   Mostly Cloudy
10:35 PM 14.0 °F - 12.2 °F 93% 30.01 in 10.0 mi Calm Calm - N/A   Overcast
10:55 PM 14.0 °F - 12.2 °F 93% 30.02 in 10.0 mi Calm Calm - N/A   Overcast
11:15 PM 14.0 °F - 14.0 °F 100% 30.02 in 10.0 mi Calm Calm - N/A   Overcast
11:55 PM 12.2 °F - 8.6 °F 85% 30.01 in 10.0 mi Calm Calm - N/A   Overcast